Winner, SD

4:37 AM CDT on June 24, 2017 (GMT -0500)
Winner

Weather History for KICR - February, 2013

Change the Weather History Date:

Wednesday, February 27, 2013

  Actual Average Record
Temperature  
Mean Temperature 29 °F 30 °F  
Max Temperature 35 °F 41 °F 79 °F (2016)
Min Temperature 22 °F 20 °F -6 °F (2015)
Degree Days  
Heating Degree Days 36 34  
Month to date heating degree days 984 1020  
Since 1 July heating degree days 4624 4975  
Cooling Degree Days 0 0  
Month to date cooling degree days 0 0  
Year to date cooling degree days 0 0  
Moisture  
Dew Point 25 °F    
Average Humidity 84    
Maximum Humidity 96    
Minimum Humidity 72    
Precipitation  
Precipitation T in 0.02 in 0.17 in (2009)
Month to date precipitation T 0.50  
Year to date precipitation T 0.75  
Sea Level Pressure  
Sea Level Pressure 30.16 in    
Wind  
Wind Speed 13 mph (NW)    
Max Wind Speed 23 mph    
Max Gust Speed 29 mph    
Visibility 6 miles    
Events Rain    
T = Trace of Precipitation, MM = Missing Value Source: NWS Daily Summary

Daily Weather History Graph

Daily Weather History Graph

Search for Another Location

Airport or City:

Trip Planner

Search our weather history database for the weather conditions in past years. The results will help you decide how hot, cold, wet, or windy it might be!

Date:

Astronomy

Feb. 27, 2013 Rise Set
Actual Time 7:18 AM CST 6:26 PM CST
Civil Twilight 6:49 AM CST 6:54 PM CST
Nautical Twilight 6:16 AM CST 7:27 PM CST
Astronomical Twilight 5:43 AM CST 8:01 PM CST
Moon 8:55 PM CST (2/27) 7:49 AM CST (2/27)
Length of Visible Light 12h 05m
Length of Day
11h 07m
Waning Gibbous, 96% of the Moon is Illuminated
Feb 27
Waning Gibbous
Mar 4
Last Quarter
Mar 11
New
Mar 19
First Quarter
Mar 27
Full

Hourly Weather History & Observations

Time (CST) Temp. Windchill Dew Point Humidity Pressure Visibility Wind Dir Wind Speed Gust Speed Precip Events Conditions
12:01 AM 23.0 °F 11.7 °F 21.2 °F 93% 30.03 in 2.5 mi NW 11.5 mph - N/A   Overcast
12:12 AM 23.0 °F 11.7 °F 21.2 °F 93% 30.03 in 3.0 mi NW 11.5 mph - N/A   Overcast
12:45 AM 24.8 °F 14.6 °F 21.2 °F 86% 30.03 in 2.0 mi NW 10.4 mph - N/A   Overcast
12:53 AM 24.1 °F 12.5 °F 21.9 °F 91% 30.12 in 1.2 mi NW 12.7 mph - N/A   Overcast
1:04 AM 24.8 °F 13.4 °F 21.2 °F 86% 30.03 in 0.8 mi NW 12.7 mph - N/A   Mist
1:19 AM 24.8 °F 14.6 °F 21.2 °F 86% 30.03 in 1.5 mi NW 10.4 mph - N/A   Overcast
1:25 AM 24.8 °F 15.3 °F 21.2 °F 86% 30.03 in 2.5 mi NW 9.2 mph - N/A   Overcast
1:34 AM 24.8 °F 15.3 °F 21.2 °F 86% 30.04 in 4.0 mi NW 9.2 mph - N/A   Overcast
1:53 AM 24.1 °F 15.2 °F 21.9 °F 91% 30.12 in 6.0 mi NW 8.1 mph - N/A   Scattered Clouds
2:53 AM 23.0 °F 12.4 °F 21.0 °F 92% 30.14 in 9.0 mi NNW 10.4 mph - N/A   Clear
3:53 AM 21.9 °F 11.7 °F 19.9 °F 92% 30.14 in 10.0 mi NW 9.2 mph - N/A   Clear
4:53 AM 21.9 °F 12.5 °F 19.0 °F 89% 30.16 in 9.0 mi NW 8.1 mph - N/A   Clear
5:53 AM 21.9 °F 14.5 °F 19.9 °F 92% 30.18 in 8.0 mi NW 5.8 mph - N/A   Mostly Cloudy
6:26 AM 24.8 °F 16.9 °F 21.2 °F 86% 30.10 in 8.0 mi NW 6.9 mph - N/A   Overcast
6:51 AM 24.8 °F 16.1 °F 23.0 °F 93% 30.10 in 7.0 mi NW 8.1 mph - N/A   Overcast
6:53 AM 25.0 °F 17.1 °F 23.0 °F 92% 30.18 in 7.0 mi NW 6.9 mph - N/A   Overcast
7:33 AM 26.6 °F 18.2 °F 24.8 °F 93% 30.11 in 5.0 mi NNW 8.1 mph - N/A   Overcast
7:53 AM 28.0 °F 21.7 °F 26.1 °F 92% 30.19 in 2.5 mi NNW 5.8 mph - N/A   Overcast
8:08 AM 28.4 °F 24.6 °F 26.6 °F 93% 30.12 in 2.0 mi NW 3.5 mph - N/A   Overcast
8:15 AM 28.4 °F 24.6 °F 26.6 °F 93% 30.12 in 1.5 mi NW 3.5 mph - N/A   Overcast
8:22 AM 28.4 °F 22.2 °F 26.6 °F 93% 30.12 in 1.2 mi NNW 5.8 mph - N/A   Overcast
8:53 AM 30.0 °F 20.5 °F 28.9 °F 96% 30.21 in 1.5 mi NNW 11.5 mph - 0.00 in   Overcast
9:51 AM 30.2 °F 18.5 °F 28.4 °F 93% 30.15 in 2.0 mi NNW 17.3 mph - 0.00 in   Overcast
9:53 AM 30.9 °F 20.2 °F 28.9 °F 92% 30.22 in 2.0 mi NNW 15.0 mph - 0.00 in   Overcast
10:16 AM 30.2 °F 19.8 °F 28.4 °F 93% 30.15 in 1.8 mi NNW 13.8 mph - 0.00 in   Overcast
10:53 AM 30.9 °F 21.7 °F 28.9 °F 92% 30.23 in 2.0 mi North 11.5 mph - 0.00 in   Overcast
11:07 AM 30.2 °F 21.3 °F 30.2 °F 100% 30.16 in 1.8 mi North 10.4 mph - 0.00 in   Overcast
11:27 AM 32.0 °F 23.0 °F 30.2 °F 93% 30.16 in 2.0 mi NNW 11.5 mph - 0.00 in   Overcast
11:38 AM 32.0 °F 23.6 °F 30.2 °F 93% 30.16 in 3.0 mi NNW 10.4 mph - 0.00 in   Overcast
11:45 AM 32.0 °F 22.1 °F 30.2 °F 93% 30.17 in 4.0 mi NNW 13.8 mph - 0.00 in   Overcast
12:08 PM 33.8 °F 24.8 °F 30.2 °F 87% 30.17 in 6.0 mi NNW 12.7 mph - N/A   Overcast
12:40 PM 33.8 °F 23.2 °F 28.4 °F 81% 30.17 in 10.0 mi NW 17.3 mph - N/A Rain Light Rain
12:53 PM 34.0 °F 23.4 °F 28.9 °F 82% 30.24 in 10.0 mi NW 17.3 mph 25.3 mph N/A   Overcast
1:53 PM 33.1 °F 22.2 °F 28.0 °F 82% 30.23 in 10.0 mi NNW 17.3 mph - N/A Rain Light Rain
2:53 PM 32.0 °F 19.8 °F 27.0 °F 82% 30.23 in 10.0 mi NW 20.7 mph - 0.00 in   Overcast
3:53 PM 33.1 °F 21.9 °F 26.1 °F 75% 30.24 in 10.0 mi NW 18.4 mph - N/A   Overcast
4:53 PM 32.0 °F 20.8 °F 25.0 °F 75% 30.25 in 10.0 mi NW 17.3 mph 24.2 mph N/A   Overcast
5:53 PM 32.0 °F 20.5 °F 25.0 °F 75% 30.26 in 10.0 mi NW 18.4 mph - N/A   Overcast
6:53 PM 30.9 °F 18.7 °F 24.1 °F 76% 30.27 in 10.0 mi NNW 19.6 mph 26.5 mph N/A   Overcast
7:53 PM 30.0 °F 17.2 °F 25.0 °F 82% 30.27 in 10.0 mi NNW 20.7 mph - N/A   Overcast
8:53 PM 30.0 °F 19.5 °F 24.1 °F 79% 30.27 in 10.0 mi NNW 13.8 mph - N/A   Overcast
9:53 PM 30.0 °F 20.5 °F 24.1 °F 79% 30.27 in 8.0 mi NNW 11.5 mph - N/A   Overcast
10:53 PM 28.9 °F 18.6 °F 23.0 °F 78% 30.27 in 10.0 mi NNW 12.7 mph - N/A   Overcast